Карточка аэропорта UWLW

Внимание!
Информация на этой странице в стадии наполнения.
Если вы не увидели какой-то информации, или заметили неточность - пожалуйста сообщите нам!
Спасибо!
Команда RU-STAFF
Название аэропортаВосточный
Название аэропорта (англ.)Vostochny
Превышение252 ft. (76.8 m.)
Координаты54°24', 48°48'
Высота перехода900m
Эшелон переходаQFE>=726mm:FL050; QFE<726:FL060
Коды ответчика6725-6727
Зона ОрВДСамара РПИ (UWWW)
Данные METARUWLW 191800Z 30003MPS CAVOK 19/08 Q1009 R20/CLRD60 NOSIG RMK QFE751/1001
Проноз погоды (TAF)UWLW 191656Z 1918/2018 20003G09MPS 9999 BKN020 TX19/2011Z TN10/2002Z TEMPO 1918/2001 18006G13MPS 6000 -SHRA BKN016CB BECMG 2001/2003 30003MPS
NOTAMshow/hide NOTAM
AWOS   TABLE

Информация о ВПП

ВПП Длина ВПП (м.) Покрытие Курс ВПП Частота ILS
205000Железобетон200110.1
025000Железобетон20110.1

Диспетчерские позиции


Сценарии



Спутниковое изображение